Weather reports worldwide

Advertisment
Shap, United Kingdom (3225): temperature & dewpoint: 20.03.2019 07:00:00 - 26.03.2019 07:00:00 (GMT)Shap, United Kingdom (3225): temperature -20cm & temperature -100cm: 20.03.2019 07:00:00 - 26.03.2019 07:00:00 (GMT)Shap, United Kingdom (3225): wind speed & gusts: 20.03.2019 07:00:00 - 26.03.2019 07:00:00 (GMT)Shap, United Kingdom (3225): wind direction: 20.03.2019 07:00:00 - 26.03.2019 07:00:00 (GMT)Shap, United Kingdom (3225): reduced air pressure: 20.03.2019 07:00:00 - 26.03.2019 07:00:00 (GMT)Shap, United Kingdom (3225): visibility: 20.03.2019 07:00:00 - 26.03.2019 07:00:00 (GMT)Shap, United Kingdom (3225): sunshine duration: 20.03.2019 07:00:00 - 26.03.2019 07:00:00 (GMT)Shap, United Kingdom (3225): precipitation: 20.03.2019 07:00:00 - 26.03.2019 07:00:00 (GMT)
Date & Time tt [°C] td [°C] tt -20cm [°C] tt -100cm [°C] ff [km/h] ff [kn] fx [km/h] fx [kn] dd ppp [hPa] vv [km] sd [min] rr [mm]
26.03.2019 07:00:00 - - - - - - - - - - - - -
26.03.2019 06:00:00 5,6 2,6 - - 8 4 - - NNW 1033,4 35 0 0,0
26.03.2019 05:00:00 6,3 2,2 - - 11 6 - - WNW 1033,5 45 0 0,0
26.03.2019 04:00:00 6,0 2,2 - - 13 7 - - WNW 1033,8 45 0 0,0
26.03.2019 03:00:00 6,0 1,4 - - 13 7 - - W 1033,8 50 0 0,0
26.03.2019 02:00:00 5,3 1,2 - - 4 2 - - W 1034,3 50 0 0,0
26.03.2019 01:00:00 4,8 1,2 - - 11 6 - - WSW 1034,8 45 0 0,0
26.03.2019 00:00:00 5,2 1,5 - - 11 6 - - W 1035,0 45 - 0,0
25.03.2019 23:00:00 5,1 1,5 - - 8 4 - - WNW 1035,0 50 0 0,0
25.03.2019 22:00:00 4,3 2,0 - - 4 2 - - W 1035,0 50 0 0,0
25.03.2019 21:00:00 3,8 0,5 - - 2 1 - - WNW 1035,0 50 0 0,0
25.03.2019 20:00:00 5,9 1,5 - - 9 5 - - WNW 1034,7 50 0 0,0
25.03.2019 19:00:00 5,3 0,3 - - 9 5 - - WNW 1034,5 35 0 0,0
25.03.2019 18:00:00 7,0 0,5 - - 9 5 - - WNW 1034,0 30 54 0,0
25.03.2019 17:00:00 8,8 0,3 - - 13 7 - - NNW 1033,4 55 24 0,0
25.03.2019 16:00:00 9,3 1,4 - - 11 6 - - N 1033,3 50 30 0,0
25.03.2019 15:00:00 9,7 1,5 - - 9 5 - - NE 1033,0 45 60 0,0
25.03.2019 14:00:00 9,4 0,5 - - 11 6 - - N 1033,3 50 60 0,0
25.03.2019 13:00:00 9,4 -0,7 - - 8 4 - - NNW 1033,3 60 60 0,0
25.03.2019 12:00:00 8,2 -0,4 - - 9 5 - - NW 1033,6 45 60 0,0
25.03.2019 11:00:00 7,1 -0,6 - - 21 11 - - N 1033,4 45 60 0,0
25.03.2019 10:00:00 7,0 1,1 - - 24 13 - - NNW 1033,5 40 60 0,0
25.03.2019 09:00:00 6,1 1,1 6,7 6,2 24 13 - - NNW 1033,3 35 60 0,0
25.03.2019 08:00:00 4,5 0,6 - - 15 8 - - NNW 1032,8 30 60 0,0
25.03.2019 07:00:00 2,6 -0,1 - - 11 6 - - NNW 1032,1 30 24 0,0
25.03.2019 06:00:00 2,2 -0,4 - - 13 7 - - NNW 1031,1 28 0 0,0
25.03.2019 05:00:00 2,9 -0,2 - - 15 8 - - NW 1030,4 30 0 0,0
25.03.2019 04:00:00 3,3 -0,6 - - 18 10 - - NW 1029,6 30 0 0,0
25.03.2019 03:00:00 3,3 -1,0 - - 15 8 - - WNW 1029,2 30 0 0,0
25.03.2019 02:00:00 3,6 -1,1 - - 18 10 - - WNW 1028,8 35 0 0,0
25.03.2019 01:00:00 3,8 -1,1 - - 21 11 - - NW 1028,6 35 0 0,0
25.03.2019 00:00:00 4,0 -0,5 - - 15 8 - - WNW 1028,2 30 - 0,0
24.03.2019 23:00:00 4,0 -0,4 - - 13 7 - - WNW 1027,6 30 0 0,0
24.03.2019 22:00:00 4,3 0,5 - - 11 6 - - WNW 1027,2 27 0 0,0
24.03.2019 21:00:00 4,8 0,8 - - 13 7 46 25 WNW 1027,3 27 0 0,0
24.03.2019 20:00:00 5,2 1,5 - - 26 14 - - WNW 1026,1 30 0 0,2
24.03.2019 19:00:00 6,0 2,1 - - 24 13 52 28 WNW 1026,1 35 0 0,0
24.03.2019 18:00:00 6,4 2,9 - - 24 13 52 28 WNW 1025,3 10 0 0,0
24.03.2019 17:00:00 6,9 2,7 - - 28 15 55 30 WNW 1025,3 55 6 0,2
24.03.2019 16:00:00 7,4 3,1 - - 21 11 46 25 W 1025,5 60 0 0,8
24.03.2019 15:00:00 6,9 3,5 - - 21 11 - - W 1026,0 6 0 0,0
24.03.2019 14:00:00 8,3 2,6 - - 24 13 - - W 1026,2 50 6 0,0
24.03.2019 13:00:00 7,2 2,2 - - 21 11 50 27 WSW 1027,3 50 0 0,0
24.03.2019 12:00:00 7,0 1,4 - - 22 12 - - WSW 1027,9 55 18 0,0
24.03.2019 11:00:00 7,5 2,3 - - 26 14 - - WSW 1028,0 75 48 0,0
24.03.2019 10:00:00 6,9 1,8 - - 18 10 - - SW 1028,6 65 48 0,0
24.03.2019 09:00:00 7,1 2,0 6,7 6,2 18 10 - - SW 1029,1 80 60 0,0
24.03.2019 08:00:00 5,9 -0,8 - - 15 8 - - W 1029,5 75 24 0,0
24.03.2019 07:00:00 4,0 0,4 - - 13 7 - - SW 1029,6 55 0 0,0
24.03.2019 06:00:00 3,4 1,4 - - 13 7 - - SW 1029,9 35 0 0,0
24.03.2019 05:00:00 2,6 1,0 - - 13 7 - - WSW 1030,3 30 0 0,0
24.03.2019 04:00:00 2,5 0,5 - - 15 8 - - WSW 1030,6 35 0 0,0
24.03.2019 03:00:00 2,1 -0,1 - - 13 7 - - SW 1031,7 40 0 0,0
24.03.2019 02:00:00 1,9 -0,6 - - 11 6 - - S 1031,9 45 0 0,0
24.03.2019 01:00:00 3,0 0,2 - - 16 9 - - SW 1032,3 40 0 0,0
24.03.2019 00:00:00 3,8 -0,3 - - 16 9 - - SW 1032,6 55 - 0,0
23.03.2019 23:00:00 2,9 0,0 - - 5 3 - - S 1033,5 45 0 0,0
23.03.2019 22:00:00 3,2 0,4 - - 9 5 - - SSE 1033,5 40 0 0,0
23.03.2019 21:00:00 2,8 0,1 - - 2 1 - - ESE 1033,9 55 0 0,0
23.03.2019 20:00:00 3,7 0,6 - - 8 4 - - SW 1033,6 45 0 0,0
23.03.2019 19:00:00 4,2 0,4 - - 2 1 - - WSW 1033,4 50 0 0,0
23.03.2019 18:00:00 6,0 0,4 - - 8 4 - - WNW 1033,0 50 0 0,0
23.03.2019 17:00:00 7,3 -0,9 - - 8 4 - - WNW 1032,8 40 24 0,0
23.03.2019 16:00:00 7,8 -0,8 - - 11 6 - - NNW 1032,8 55 42 0,0
23.03.2019 15:00:00 8,8 0,2 - - 13 7 - - W 1032,8 60 54 0,0
23.03.2019 14:00:00 8,5 -0,8 - - 5 3 - - WNW 1033,1 50 48 0,0
23.03.2019 13:00:00 7,4 -1,5 - - 13 7 - - NW 1033,6 65 30 0,0
23.03.2019 12:00:00 7,4 -1,2 - - 15 8 - - W 1033,2 65 36 0,0
23.03.2019 11:00:00 7,2 1,0 - - 11 6 - - NW 1032,9 50 36 0,0
23.03.2019 10:00:00 6,7 0,3 - - 11 6 - - WNW 1032,6 40 48 0,0
23.03.2019 09:00:00 5,4 -0,8 6,7 6,0 8 4 - - NW 1032,1 40 36 0,0
23.03.2019 08:00:00 3,2 -0,4 - - 8 4 - - ESE 1031,6 35 12 0,0
23.03.2019 07:00:00 3,0 -1,3 - - 9 5 - - WNW 1031,0 30 0 0,0
23.03.2019 06:00:00 2,8 -1,9 - - 9 5 - - W 1030,3 30 0 0,0
23.03.2019 05:00:00 3,3 -1,5 - - 15 8 - - W 1029,3 29 0 0,0
23.03.2019 04:00:00 3,2 -1,3 - - 13 7 - - WNW 1029,1 29 0 0,0
23.03.2019 03:00:00 3,1 -1,0 - - 11 6 - - NW 1028,8 30 0 0,0
23.03.2019 02:00:00 2,1 -0,8 - - 5 3 - - WSW 1028,7 30 0 0,0
23.03.2019 01:00:00 3,7 -0,4 - - 9 5 - - NW 1027,8 30 0 0,0
23.03.2019 00:00:00 4,0 -0,1 - - 8 4 - - NW 1027,5 35 - 0,0
22.03.2019 23:00:00 4,0 -0,3 - - 4 2 - - WNW 1027,0 30 0 0,0
22.03.2019 22:00:00 5,7 0,6 - - 18 10 - - W 1025,8 35 0 0,0
22.03.2019 21:00:00 7,1 2,7 - - 22 12 - - W 1024,9 40 0 0,0
22.03.2019 20:00:00 7,6 3,3 - - 21 11 - - W 1024,0 50 0 0,0
22.03.2019 19:00:00 8,2 4,9 - - 16 9 - - WNW 1023,0 75 0 0,0
22.03.2019 18:00:00 8,5 7,4 - - 18 10 48 26 WSW 1021,9 15 0 0,4
22.03.2019 17:00:00 8,4 7,6 - - 29 16 50 27 SW 1021,2 2,7 0 1,0
22.03.2019 16:00:00 8,1 7,2 - - 31 17 54 29 SW 1021,3 4,5 0 1,0
22.03.2019 15:00:00 8,3 7,2 - - 37 20 59 32 SW 1021,2 1,3 0 1,2
22.03.2019 14:00:00 8,0 6,9 - - 34 18 59 32 SW 1021,6 1,3 0 0,4
22.03.2019 13:00:00 7,9 6,1 - - 39 21 63 34 SSW 1022,0 45 0 0,4
22.03.2019 12:00:00 7,8 6,6 - - 39 21 65 35 SSW 1022,0 2,6 0 0,2
22.03.2019 11:00:00 8,6 5,4 - - 42 23 67 36 SW 1022,1 60 36 0,0
22.03.2019 10:00:00 7,7 6,0 - - 44 24 72 39 SW 1022,4 35 0 0,0
22.03.2019 09:00:00 8,6 7,2 6,7 5,9 46 25 67 36 SW 1022,6 1,8 6 0,4
22.03.2019 08:00:00 8,5 7,2 - - 39 21 61 33 SW 1023,0 8 0 0,2
22.03.2019 07:00:00 8,3 7,5 - - 42 23 63 34 SSW 1023,0 2,5 0 0,2
22.03.2019 06:00:00 8,1 7,2 - - 42 23 57 31 SSW 1023,0 2,3 0 0,0
22.03.2019 05:00:00 8,3 7,3 - - 39 21 54 29 SSW 1023,5 4,8 0 0,0
22.03.2019 04:00:00 8,3 7,3 - - 31 17 52 28 SSW 1024,4 19 0 0,0
22.03.2019 03:00:00 8,5 7,2 - - 37 20 59 32 SSW 1025,2 16 0 0,0
22.03.2019 02:00:00 8,9 7,0 - - 37 20 54 29 SSW 1025,8 23 0 0,0
22.03.2019 01:00:00 8,8 7,4 - - 24 13 - - SSW 1026,6 29 0 0,0
22.03.2019 00:00:00 9,0 7,3 - - 11 6 - - SSE 1027,7 23 - 0,0
21.03.2019 23:00:00 8,9 7,1 - - 11 6 - - SSE 1028,2 30 0 0,0
21.03.2019 22:00:00 9,8 7,2 - - 13 7 - - NE 1029,6 26 0 0,0
21.03.2019 21:00:00 9,1 6,8 - - 8 4 - - SSE 1029,5 30 0 0,0
21.03.2019 20:00:00 8,8 6,7 - - 11 6 - - SSW 1030,2 30 0 0,0
21.03.2019 19:00:00 9,0 7,0 - - 11 6 - - S 1030,6 45 0 0,0
21.03.2019 18:00:00 9,4 7,5 - - 13 7 - - SSW 1030,8 60 0 0,0
21.03.2019 17:00:00 9,5 7,9 - - 13 7 - - SSW 1030,9 45 0 0,0
21.03.2019 16:00:00 9,7 8,1 - - 16 9 - - SSW 1031,1 26 0 0,0
21.03.2019 15:00:00 10,3 8,4 - - 24 13 - - SSW 1031,1 50 36 0,0
21.03.2019 14:00:00 12,0 9,1 - - 26 14 - - SSW 1030,9 75 60 0,0
21.03.2019 13:00:00 12,2 8,9 - - 21 11 - - SW 1031,1 75 60 0,0
21.03.2019 12:00:00 12,7 9,4 - - 15 8 - - WSW 1031,1 75 18 0,0
21.03.2019 11:00:00 9,9 8,3 - - 15 8 - - SW 1031,9 75 0 0,0
21.03.2019 10:00:00 10,3 7,7 - - 21 11 - - SW 1031,6 75 12 0,0
21.03.2019 09:00:00 9,8 7,9 6,2 5,7 16 9 - - SW 1031,3 75 0 0,0
21.03.2019 08:00:00 9,2 7,8 - - 16 9 - - SW 1030,9 25 0 0,0
21.03.2019 07:00:00 8,9 7,6 - - 15 8 - - SW 1030,3 30 0 0,0
21.03.2019 06:00:00 8,9 7,1 - - 18 10 - - SW 1029,6 40 0 0,0
21.03.2019 05:00:00 9,1 7,0 - - 16 9 - - SW 1029,0 45 0 0,0
21.03.2019 04:00:00 9,4 7,2 - - 13 7 - - WSW 1028,7 45 0 0,0
21.03.2019 03:00:00 8,4 7,6 - - 15 8 - - SSW 1028,7 35 0 0,2
21.03.2019 02:00:00 8,1 8,0 - - 15 8 - - SSE 1029,1 3,7 0 0,0
21.03.2019 01:00:00 7,5 7,4 - - 13 7 - - SSE 1029,3 1,1 0 0,0
21.03.2019 00:00:00 7,6 7,0 - - 11 6 - - SSE 1029,4 35 - 0,0
20.03.2019 23:00:00 7,7 7,0 - - 24 13 - - S 1029,5 35 0 0,0
20.03.2019 22:00:00 7,5 7,1 - - 24 13 - - S 1029,7 5 0 0,0
20.03.2019 21:00:00 7,4 7,2 - - 22 12 - - SW 1029,9 4,6 0 0,0
20.03.2019 20:00:00 7,1 7,0 - - 16 9 - - SW 1029,5 2,8 0 0,0
20.03.2019 19:00:00 7,3 7,1 - - 21 11 48 26 SW 1029,5 12 0 0,0
20.03.2019 18:00:00 7,5 7,3 - - 37 20 54 29 SW 1028,1 2,3 0 0,0
20.03.2019 17:00:00 8,0 7,9 - - 24 13 - - SW 1028,3 1,0 0 0,0
20.03.2019 16:00:00 8,4 8,3 - - 26 14 - - SSW 1028,7 1,0 0 0,0
20.03.2019 15:00:00 8,9 8,3 - - 16 9 - - SW 1029,1 13 0 0,0
20.03.2019 14:00:00 8,8 8,3 - - 5 3 - - WSW 1029,4 14 0 0,0
20.03.2019 13:00:00 8,4 8,4 - - 15 8 - - SSE 1029,4 2,1 0 0,0
20.03.2019 12:00:00 8,3 8,2 - - 18 10 - - SSE 1029,4 1,8 0 0,0
20.03.2019 11:00:00 8,3 8,3 - - 13 7 - - SW 1029,2 1,4 0 0,0
20.03.2019 10:00:00 8,0 7,9 - - 15 8 - - SSW 1029,6 9 0 0,0
20.03.2019 09:00:00 7,4 7,4 5,9 5,7 18 10 - - S 1029,5 0,3 0 0,0
20.03.2019 08:00:00 7,3 7,2 - - 24 13 - - SSW 1028,6 0,2 0 0,0
20.03.2019 07:00:00 7,7 7,5 - - 18 10 - - SW 1028,6 12 0 0,0

tt = temperature
td = dewpoint
tt -20cm = temperature -20cm
tt -100cm = temperature -100cm
ff = wind speed
fx = gusts
dd = wind direction
ppp = reduced air pressure
vv = visibility
sd = sunshine duration
rr = precipitation

Next stations